Time,TemperatureF,DewpointF,PressureIn,WindDirection,WindDirectionDegrees,WindSpeedMPH,WindSpeedGustMPH,Humidity,HourlyPrecipIn,Conditions,Clouds,dailyrainin,SoftwareType,DateUTC
2013-04-19 00:00:00,72.0,54.9,29.76,WNW,293,2.5,2.5,55,0.00,,,0.00,WUHU216HW,2013-04-19 04:00:00,
2013-04-19 00:01:00,72.0,54.9,29.76,WNW,293,2.5,2.5,55,0.00,,,0.00,WUHU216HW,2013-04-19 04:01:00,
2013-04-19 00:06:00,72.0,54.9,29.76,WNW,293,2.5,2.5,55,0.00,,,0.00,WUHU216HW,2013-04-19 04:06:00,
2013-04-19 00:29:00,71.5,54.9,29.76,WNW,293,1.1,1.1,56,0.00,,,0.00,WUHU216HW,2013-04-19 04:29:00,
2013-04-19 00:30:00,71.5,54.9,29.76,WNW,293,1.1,1.1,56,0.00,,,0.00,WUHU216HW,2013-04-19 04:30:00,
2013-04-19 00:35:00,71.5,54.9,29.76,WNW,293,1.1,1.1,56,0.00,,,0.00,WUHU216HW,2013-04-19 04:35:00,
2013-04-19 00:59:00,70.9,54.4,29.74,SW,225,1.1,1.1,56,0.00,,,0.00,WUHU216HW,2013-04-19 04:59:00,
2013-04-19 01:00:00,70.9,54.4,29.74,SW,225,1.1,1.1,56,0.00,,,0.00,WUHU216HW,2013-04-19 05:00:00,
2013-04-19 01:05:00,70.9,54.4,29.74,SW,225,1.1,1.1,56,0.00,,,0.00,WUHU216HW,2013-04-19 05:05:00,
2013-04-19 01:29:00,69.8,53.5,29.72,WNW,293,0.4,0.4,56,0.00,,,0.00,WUHU216HW,2013-04-19 05:29:00,
2013-04-19 01:30:00,69.8,53.5,29.72,WNW,293,0.4,0.4,56,0.00,,,0.00,WUHU216HW,2013-04-19 05:30:00,
2013-04-19 01:35:00,69.8,53.5,29.72,WNW,293,0.4,0.4,56,0.00,,,0.00,WUHU216HW,2013-04-19 05:35:00,
2013-04-19 01:59:00,69.5,53.1,29.71,WSW,248,2.5,2.5,56,0.00,,,0.00,WUHU216HW,2013-04-19 05:59:00,
2013-04-19 02:00:00,69.5,53.1,29.71,WSW,248,2.5,2.5,56,0.00,,,0.00,WUHU216HW,2013-04-19 06:00:00,
2013-04-19 02:05:00,69.5,53.1,29.71,WSW,248,2.5,2.5,56,0.00,,,0.00,WUHU216HW,2013-04-19 06:05:00,
2013-04-19 02:29:00,68.8,52.9,29.70,NW,315,1.6,1.6,57,0.00,,,0.00,WUHU216HW,2013-04-19 06:29:00,
2013-04-19 02:30:00,68.8,52.9,29.70,NW,315,1.6,1.6,57,0.00,,,0.00,WUHU216HW,2013-04-19 06:30:00,
2013-04-19 02:35:00,68.8,52.9,29.70,NW,315,1.6,1.6,57,0.00,,,0.00,WUHU216HW,2013-04-19 06:35:00,
2013-04-19 03:00:00,68.2,52.8,29.69,WNW,293,1.6,1.6,58,0.00,,,0.00,WUHU216HW,2013-04-19 07:00:00,
2013-04-19 03:05:00,68.2,52.8,29.69,WNW,293,1.6,1.6,58,0.00,,,0.00,WUHU216HW,2013-04-19 07:05:00,
2013-04-19 03:30:00,67.5,53.2,29.68,West,270,0.0,0.0,60,0.00,,,0.00,WUHU216HW,2013-04-19 07:30:00,
2013-04-19 03:35:00,67.5,53.2,29.68,West,270,0.0,0.0,60,0.00,,,0.00,WUHU216HW,2013-04-19 07:35:00,
2013-04-19 04:00:00,67.1,53.3,29.67,WSW,248,0.4,0.4,61,0.00,,,0.00,WUHU216HW,2013-04-19 08:00:00,
2013-04-19 04:05:00,67.1,53.3,29.67,WSW,248,0.4,0.4,61,0.00,,,0.00,WUHU216HW,2013-04-19 08:05:00,
2013-04-19 04:30:00,67.0,53.6,29.66,West,270,0.7,0.7,62,0.00,,,0.00,WUHU216HW,2013-04-19 08:30:00,
2013-04-19 04:35:00,67.0,53.6,29.66,West,270,0.7,0.7,62,0.00,,,0.00,WUHU216HW,2013-04-19 08:35:00,
2013-04-19 05:00:00,66.8,53.7,29.65,West,270,0.7,0.7,63,0.00,,,0.00,WUHU216HW,2013-04-19 09:00:00,
2013-04-19 05:05:00,66.8,53.7,29.65,West,270,0.7,0.7,63,0.00,,,0.00,WUHU216HW,2013-04-19 09:05:00,
2013-04-19 05:30:00,66.8,54.2,29.63,WSW,248,1.1,1.1,64,0.00,,,0.00,WUHU216HW,2013-04-19 09:30:00,
2013-04-19 05:35:00,66.8,54.2,29.63,WSW,248,1.1,1.1,64,0.00,,,0.00,WUHU216HW,2013-04-19 09:35:00,
2013-04-19 05:59:00,67.1,54.9,29.62,WSW,248,0.9,0.9,65,0.00,,,0.00,WUHU216HW,2013-04-19 09:59:00,
2013-04-19 06:00:00,67.1,54.9,29.62,WSW,248,0.9,0.9,65,0.00,,,0.00,WUHU216HW,2013-04-19 10:00:00,
2013-04-19 06:05:00,67.1,54.9,29.62,WSW,248,0.9,0.9,65,0.00,,,0.00,WUHU216HW,2013-04-19 10:05:00,
2013-04-19 06:29:00,67.5,55.3,29.61,WSW,248,2.0,2.0,65,0.00,,,0.00,WUHU216HW,2013-04-19 10:29:00,
2013-04-19 06:30:00,67.5,55.3,29.61,WSW,248,2.0,2.0,65,0.00,,,0.00,WUHU216HW,2013-04-19 10:30:00,
2013-04-19 06:35:00,67.5,55.3,29.61,WSW,248,2.0,2.0,65,0.00,,,0.00,WUHU216HW,2013-04-19 10:35:00,
2013-04-19 06:59:00,67.9,55.6,29.60,ENE,68,0.2,0.2,65,0.00,,,0.00,WUHU216HW,2013-04-19 10:59:00,
2013-04-19 07:00:00,67.9,55.6,29.60,ENE,68,0.2,0.2,65,0.00,,,0.00,WUHU216HW,2013-04-19 11:00:00,
2013-04-19 07:05:00,67.9,55.6,29.60,ENE,68,0.2,0.2,65,0.00,,,0.00,WUHU216HW,2013-04-19 11:05:00,
2013-04-19 07:29:00,68.6,55.9,29.59,ENE,68,1.3,1.3,64,0.00,,,0.00,WUHU216HW,2013-04-19 11:29:00,
2013-04-19 07:30:00,68.6,55.9,29.59,ENE,68,1.3,1.3,64,0.00,,,0.00,WUHU216HW,2013-04-19 11:30:00,
2013-04-19 07:35:00,68.6,55.9,29.59,ENE,68,1.3,1.3,64,0.00,,,0.00,WUHU216HW,2013-04-19 11:35:00,
2013-04-19 07:59:00,69.1,56.4,29.58,West,270,2.5,2.5,64,0.00,,,0.00,WUHU216HW,2013-04-19 11:59:00,
2013-04-19 08:00:00,69.1,56.4,29.58,West,270,2.5,2.5,64,0.00,,,0.00,WUHU216HW,2013-04-19 12:00:00,
2013-04-19 08:05:00,69.1,56.4,29.58,West,270,2.5,2.5,64,0.00,,,0.00,WUHU216HW,2013-04-19 12:05:00,
2013-04-19 08:29:00,69.5,55.9,29.56,West,270,3.4,3.4,62,0.00,,,0.00,WUHU216HW,2013-04-19 12:29:00,
2013-04-19 08:30:00,69.5,55.9,29.56,West,270,3.4,3.4,62,0.00,,,0.00,WUHU216HW,2013-04-19 12:30:00,
2013-04-19 08:35:00,69.5,55.9,29.56,West,270,3.4,3.4,62,0.00,,,0.00,WUHU216HW,2013-04-19 12:35:00,
2013-04-19 08:59:00,70.6,56.5,29.55,WSW,248,1.8,1.8,61,0.00,,,0.00,WUHU216HW,2013-04-19 12:59:00,
2013-04-19 09:00:00,70.6,56.5,29.55,WSW,248,1.8,1.8,61,0.00,,,0.00,WUHU216HW,2013-04-19 13:00:00,
2013-04-19 09:05:00,70.6,56.5,29.55,WSW,248,1.8,1.8,61,0.00,,,0.00,WUHU216HW,2013-04-19 13:05:00,
2013-04-19 09:29:00,69.1,57.2,29.56,WNW,293,2.0,2.0,66,0.00,,,0.00,WUHU216HW,2013-04-19 13:29:00,
2013-04-19 09:30:00,69.1,57.2,29.56,WNW,293,2.0,2.0,66,0.00,,,0.00,WUHU216HW,2013-04-19 13:30:00,
2013-04-19 09:35:00,69.1,57.2,29.56,WNW,293,2.0,2.0,66,0.00,,,0.00,WUHU216HW,2013-04-19 13:35:00,
2013-04-19 09:59:00,66.8,57.9,29.54,NW,315,0.9,0.9,73,0.05,,,0.00,WUHU216HW,2013-04-19 13:59:00,
2013-04-19 10:00:00,66.8,57.9,29.54,NW,315,0.9,0.9,73,0.05,,,0.00,WUHU216HW,2013-04-19 14:00:00,
2013-04-19 10:05:00,66.8,57.9,29.54,NW,315,0.9,0.9,73,0.05,,,0.00,WUHU216HW,2013-04-19 14:05:00,
2013-04-19 10:29:00,66.1,58.6,29.55,West,270,2.0,2.0,77,0.07,,,0.05,WUHU216HW,2013-04-19 14:29:00,
2013-04-19 10:30:00,66.1,58.6,29.55,West,270,2.0,2.0,77,0.07,,,0.05,WUHU216HW,2013-04-19 14:30:00,
2013-04-19 10:35:00,66.1,58.6,29.55,West,270,2.0,2.0,77,0.07,,,0.05,WUHU216HW,2013-04-19 14:35:00,
2013-04-19 10:59:00,64.8,58.5,29.55,West,270,1.8,1.8,80,0.07,,,0.09,WUHU216HW,2013-04-19 14:59:00,
2013-04-19 11:00:00,64.8,58.5,29.55,West,270,1.8,1.8,80,0.07,,,0.09,WUHU216HW,2013-04-19 15:00:00,
2013-04-19 11:05:00,64.8,58.5,29.55,West,270,1.8,1.8,80,0.07,,,0.09,WUHU216HW,2013-04-19 15:05:00,
2013-04-19 11:29:00,64.4,58.9,29.53,NNE,23,2.5,2.5,82,0.08,,,0.13,WUHU216HW,2013-04-19 15:29:00,
2013-04-19 11:30:00,64.4,58.9,29.53,NNE,23,2.5,2.5,82,0.08,,,0.13,WUHU216HW,2013-04-19 15:30:00,
2013-04-19 11:35:00,64.4,58.9,29.53,NNE,23,2.5,2.5,82,0.08,,,0.13,WUHU216HW,2013-04-19 15:35:00,
2013-04-19 11:59:00,65.3,59.7,29.50,NNW,338,0.9,0.9,82,0.04,,,0.16,WUHU216HW,2013-04-19 15:59:00,
2013-04-19 12:00:00,65.3,59.7,29.50,NNW,338,0.9,0.9,82,0.04,,,0.16,WUHU216HW,2013-04-19 16:00:00,
2013-04-19 12:05:00,65.3,59.7,29.50,NNW,338,0.9,0.9,82,0.04,,,0.16,WUHU216HW,2013-04-19 16:05:00,
2013-04-19 12:29:00,67.7,60.2,29.50,West,270,6.3,6.3,77,0.00,,,0.16,WUHU216HW,2013-04-19 16:29:00,
2013-04-19 12:30:00,67.7,60.2,29.50,West,270,6.3,6.3,77,0.00,,,0.16,WUHU216HW,2013-04-19 16:30:00,
2013-04-19 12:35:00,67.7,60.2,29.50,West,270,6.3,6.3,77,0.00,,,0.16,WUHU216HW,2013-04-19 16:35:00,
2013-04-19 12:59:00,60.5,55.4,29.55,WSW,248,2.5,2.5,83,0.04,,,0.16,WUHU216HW,2013-04-19 16:59:00,
2013-04-19 13:00:00,60.5,55.4,29.55,WSW,248,2.5,2.5,83,0.04,,,0.16,WUHU216HW,2013-04-19 17:00:00,
2013-04-19 13:05:00,60.5,55.4,29.55,WSW,248,2.5,2.5,83,0.04,,,0.16,WUHU216HW,2013-04-19 17:05:00,
2013-04-19 13:30:00,56.5,50.8,29.59,West,270,3.1,3.1,81,0.03,,,0.21,WUHU216HW,2013-04-19 17:30:00,
2013-04-19 13:35:00,56.5,50.8,29.59,West,270,3.1,3.1,81,0.03,,,0.21,WUHU216HW,2013-04-19 17:35:00,
2013-04-19 13:59:00,52.9,47.3,29.61,WSW,248,5.4,5.4,81,0.00,,,0.21,WUHU216HW,2013-04-19 17:59:00,
2013-04-19 14:00:00,52.9,47.3,29.61,WSW,248,5.4,5.4,81,0.00,,,0.21,WUHU216HW,2013-04-19 18:00:00,
2013-04-19 14:05:00,52.9,47.3,29.61,WSW,248,5.4,5.4,81,0.00,,,0.21,WUHU216HW,2013-04-19 18:05:00,
2013-04-19 14:29:00,50.4,45.1,29.64,SE,135,1.1,1.1,82,0.01,,,0.21,WUHU216HW,2013-04-19 18:29:00,
2013-04-19 14:30:00,50.4,45.1,29.64,SE,135,1.1,1.1,82,0.01,,,0.21,WUHU216HW,2013-04-19 18:30:00,
2013-04-19 14:35:00,50.4,45.1,29.64,SE,135,1.1,1.1,82,0.01,,,0.21,WUHU216HW,2013-04-19 18:35:00,
2013-04-19 14:59:00,49.9,45.5,29.66,West,270,2.5,2.5,85,0.01,,,0.22,WUHU216HW,2013-04-19 18:59:00,
2013-04-19 15:00:00,49.9,45.5,29.66,West,270,2.5,2.5,85,0.01,,,0.22,WUHU216HW,2013-04-19 19:00:00,
2013-04-19 15:05:00,49.9,45.5,29.66,West,270,2.5,2.5,85,0.01,,,0.22,WUHU216HW,2013-04-19 19:05:00,
2013-04-19 15:29:00,49.3,43.7,29.68,SW,225,2.2,2.2,81,0.00,,,0.22,WUHU216HW,2013-04-19 19:29:00,
2013-04-19 15:30:00,49.3,43.7,29.68,SW,225,2.2,2.2,81,0.00,,,0.22,WUHU216HW,2013-04-19 19:30:00,
2013-04-19 15:35:00,49.3,43.7,29.68,SW,225,2.2,2.2,81,0.00,,,0.22,WUHU216HW,2013-04-19 19:35:00,
2013-04-19 15:59:00,48.1,42.5,29.68,WNW,293,4.5,4.5,81,0.01,,,0.22,WUHU216HW,2013-04-19 19:59:00,
2013-04-19 16:00:00,48.1,42.5,29.68,WNW,293,4.5,4.5,81,0.01,,,0.22,WUHU216HW,2013-04-19 20:00:00,
2013-04-19 16:05:00,48.1,42.5,29.68,WNW,293,4.5,4.5,81,0.01,,,0.22,WUHU216HW,2013-04-19 20:05:00,
2013-04-19 16:29:00,48.8,42.1,29.70,WSW,248,6.9,6.9,78,0.01,,,0.23,WUHU216HW,2013-04-19 20:29:00,
2013-04-19 16:30:00,48.8,42.1,29.70,WSW,248,6.9,6.9,78,0.01,,,0.23,WUHU216HW,2013-04-19 20:30:00,
2013-04-19 16:35:00,48.8,42.1,29.70,WSW,248,6.9,6.9,78,0.01,,,0.23,WUHU216HW,2013-04-19 20:35:00,
2013-04-19 16:59:00,48.8,40.2,29.72,SW,225,3.1,3.1,72,0.00,,,0.23,WUHU216HW,2013-04-19 20:59:00,
2013-04-19 17:00:00,48.8,40.2,29.72,SW,225,3.1,3.1,72,0.00,,,0.23,WUHU216HW,2013-04-19 21:00:00,
2013-04-19 17:05:00,48.8,40.2,29.72,SW,225,3.1,3.1,72,0.00,,,0.23,WUHU216HW,2013-04-19 21:05:00,
2013-04-19 17:29:00,49.0,38.8,29.74,SW,225,7.2,7.2,68,0.00,,,0.23,WUHU216HW,2013-04-19 21:29:00,
2013-04-19 17:30:00,49.0,38.8,29.74,SW,225,7.2,7.2,68,0.00,,,0.23,WUHU216HW,2013-04-19 21:30:00,
2013-04-19 17:35:00,49.0,38.8,29.74,SW,225,7.2,7.2,68,0.00,,,0.23,WUHU216HW,2013-04-19 21:35:00,
2013-04-19 17:59:00,49.1,38.3,29.76,West,270,7.6,7.6,66,0.00,,,0.23,WUHU216HW,2013-04-19 21:59:00,
2013-04-19 18:00:00,49.1,38.3,29.76,West,270,7.6,7.6,66,0.00,,,0.23,WUHU216HW,2013-04-19 22:00:00,
2013-04-19 18:05:00,49.1,38.3,29.76,West,270,7.6,7.6,66,0.00,,,0.23,WUHU216HW,2013-04-19 22:05:00,
2013-04-19 18:29:00,48.1,36.5,29.76,WSW,248,3.4,3.4,64,0.00,,,0.23,WUHU216HW,2013-04-19 22:29:00,
2013-04-19 18:30:00,48.1,36.5,29.76,WSW,248,3.4,3.4,64,0.00,,,0.23,WUHU216HW,2013-04-19 22:30:00,
2013-04-19 18:35:00,48.1,36.5,29.76,WSW,248,3.4,3.4,64,0.00,,,0.23,WUHU216HW,2013-04-19 22:35:00,
2013-04-19 19:00:00,47.5,35.9,29.77,West,270,8.3,8.3,64,0.00,,,0.23,WUHU216HW,2013-04-19 23:00:00,
2013-04-19 19:05:00,47.5,35.9,29.77,West,270,8.3,8.3,64,0.00,,,0.23,WUHU216HW,2013-04-19 23:05:00,
2013-04-19 19:30:00,47.2,36.0,29.76,WNW,293,2.9,2.9,65,0.00,,,0.23,WUHU216HW,2013-04-19 23:30:00,
2013-04-19 19:35:00,47.2,36.0,29.76,WNW,293,2.9,2.9,65,0.00,,,0.23,WUHU216HW,2013-04-19 23:35:00,
2013-04-19 20:00:00,46.4,34.5,29.77,WSW,248,2.5,2.5,63,0.00,,,0.23,WUHU216HW,2013-04-20 00:00:00,
2013-04-19 20:05:00,46.4,34.5,29.77,WSW,248,2.5,2.5,63,0.00,,,0.23,WUHU216HW,2013-04-20 00:05:00,
2013-04-19 20:30:00,45.7,33.4,29.78,SW,225,4.0,4.0,62,0.00,,,0.23,WUHU216HW,2013-04-20 00:30:00,
2013-04-19 20:35:00,45.7,33.4,29.78,SW,225,4.0,4.0,62,0.00,,,0.23,WUHU216HW,2013-04-20 00:35:00,
2013-04-19 21:00:00,45.2,33.3,29.80,SW,225,4.7,4.7,63,0.00,,,0.23,WUHU216HW,2013-04-20 01:00:00,
2013-04-19 21:05:00,45.2,33.3,29.80,SW,225,4.7,4.7,63,0.00,,,0.23,WUHU216HW,2013-04-20 01:05:00,
2013-04-19 21:30:00,44.8,32.9,29.82,WSW,248,1.3,1.3,63,0.00,,,0.23,WUHU216HW,2013-04-20 01:30:00,
2013-04-19 21:35:00,44.8,32.9,29.82,WSW,248,1.3,1.3,63,0.00,,,0.23,WUHU216HW,2013-04-20 01:35:00,
2013-04-19 22:00:00,44.5,32.7,29.83,WSW,248,6.3,6.3,63,0.00,,,0.23,WUHU216HW,2013-04-20 02:00:00,
2013-04-19 22:05:00,44.5,32.7,29.83,WSW,248,6.3,6.3,63,0.00,,,0.23,WUHU216HW,2013-04-20 02:05:00,
2013-04-19 22:30:00,44.3,32.0,29.84,WSW,248,3.4,3.4,62,0.00,,,0.23,WUHU216HW,2013-04-20 02:30:00,
2013-04-19 22:35:00,44.3,32.0,29.84,WSW,248,3.4,3.4,62,0.00,,,0.23,WUHU216HW,2013-04-20 02:35:00,
2013-04-19 23:00:00,44.1,31.5,29.85,WSW,248,2.5,2.5,61,0.00,,,0.23,WUHU216HW,2013-04-20 03:00:00,
2013-04-19 23:05:00,44.1,31.5,29.85,WSW,248,2.5,2.5,61,0.00,,,0.23,WUHU216HW,2013-04-20 03:05:00,
2013-04-19 23:30:00,43.9,30.5,29.85,North,0,6.5,6.5,59,0.00,,,0.23,WUHU216HW,2013-04-20 03:30:00,
2013-04-19 23:35:00,43.9,30.5,29.85,North,0,6.5,6.5,59,0.00,,,0.23,WUHU216HW,2013-04-20 03:35:00,